Location: Omaha
(41.2590°N, 95.9380°W)
Time: 16:44:40
(UTC-06:00)

Vanguard 3 - Pass Details

Date: 25 June 2018
Orbit: 508 x 3264 km, 33.3° (Epoch: 12 November)

Event Time Altitude Azimuth Distance (km) Brightness Sun altitude
Rises 04:08:12 0° 244° (WSW) 2,855 - -15.3°
Reaches altitude 10° 04:10:15 10° 235° (SW) 2,113 - -15.0°
Exits shadow 04:12:05 23° 218° (SW) 1,570 8.0 -14.8°
Maximum altitude 04:14:42 38° 166° (SSE) 1,332 7.9 -14.5°
Drops below altitude 10° 04:21:45 10° 102° (ESE) 3,370 10.7 -13.6°
Sets 04:25:52 0° 96° (E) 4,833 11.6 -13.1°
